Regional Weather Roundup
Issued by NWS

Home | Current Version | Previous Version | Text Only | Print | Product List | Glossary On
Versions: 1 2 3 4 5 6 7 8 9 10 11 12 13 14 15 16 17 18 19 20 21 22 23 24 25 26 27 28 29 30 31 32 33 34 35 36 37 38 39 40 41 42 43 44 45 46 47 48 49 50
812
ASUS43 KOAX 221402
RWRNE

WEATHER ROUNDUP FOR NEBRASKA
NATIONAL WEATHER SERVICE OMAHA NE
900 AM CDT SAT JUL 22 2017

NOTES: SATELLITE DATA IS BEING USED TO AUGMENT CLOUD COVER ABOVE
       12000 FEET.
       "FAIR" INDICATES FEW OR NO CLOUDS BELOW 12,000 FEET WITH NO
       SIGNIFICANT WEATHER AND/OR OBSTRUCTIONS TO VISIBILITY.


NEZ001>004-019>022-054>056-221500-
NEBRASKA PANHANDLE

CITY           SKY/WX    TMP DP  RH WIND       PRES   REMARKS
SCOTTSBLUFF    SUNNY     72  56  57 NW8       30.08R
ALLIANCE       CLOUDY    74  56  53 N6        30.08R
CHADRON        MOSUNNY   74  52  46 S3        30.04R
GORDON         FAIR      72  63  73 W3        30.05R
KIMBALL        CLOUDY    72  54  53 NW3       30.15R
SIDNEY         PTSUNNY   72  56  57 N3        30.13R
$$

NEZ057>060-069>072-079>082-221500-
SOUTHWEST NEBRASKA

CITY           SKY/WX    TMP DP  RH WIND       PRES   REMARKS
NORTH PLATTE   LGT RAIN  76  66  71 CALM      29.99R
IMPERIAL       CLOUDY    73  59  61 NW8       30.05R
LEXINGTON      CLOUDY    80  68  66 NE6       29.95R
MCCOOK         MOSUNNY   84  59  42 N12       29.97R
OGALLALA       CLOUDY    73  60  62 SW5       30.05R
$$

NEZ005>010-023>029-035>040-094-221500-
NORTH CENTRAL NEBRASKA

CITY           SKY/WX    TMP DP  RH WIND       PRES   REMARKS
VALENTINE      MOSUNNY   82  60  47 W6        29.98R
AINSWORTH      CLOUDY    73  66  79 W3        29.99R
BROKEN BOW     CLOUDY    77  67  71 N8        29.97R
O`NEILL        PTSUNNY   77  76  96 CALM      29.94R FOG
ORD            CLOUDY    78  71  79 NE6       29.93R
THEDFORD       CLOUDY    77  64  64 CALM      30.01S
$$

NEZ041-046>049-061>064-073>077-083>087-221500-
SOUTH CENTRAL NEBRASKA

CITY           SKY/WX    TMP DP  RH WIND       PRES   REMARKS
GRAND ISLAND   CLOUDY    77  73  87 N10       29.92R
AURORA         CLOUDY    74  73  97 N8        29.90R FOG
HASTINGS       CLOUDY    77  69  76 N9        29.92R
HEBRON         SUNNY     83  69  61 NE5       29.86S
HOLDREGE       CLOUDY    81  67  64 NE14      29.92R
KEARNEY        CLOUDY    81  69  67 NE14      29.93R
YORK           CLOUDY    77  75  94 N7        29.88R
$$

NEZ011>018-030>034-042>045-221500-
NORTHEAST NEBRASKA

CITY           SKY/WX    TMP DP  RH WIND       PRES   REMARKS
NORFOLK        MOSUNNY   80  73  79 CALM      29.89R
ALBION         PTSUNNY   78  75  90 NE5       29.91S FOG
BLAIR          CLOUDY    77  76  96 NW7       29.85R FOG
COLUMBUS       CLOUDY    77  75  93 N8        29.89R FOG
FREMONT        CLOUDY    77  76  97 NW6       29.87R FOG
TEKAMAH        CLOUDY    78  73  84 N8        29.86R
WAYNE          MOSUNNY   77  77  99 CALM      29.88R
$$

NEZ050>053-065>068-078-088>093-221500-
SOUTHEAST NEBRASKA

CITY           SKY/WX    TMP DP  RH WIND       PRES   REMARKS
LINCOLN        CLOUDY    81  77  88 CALM      29.84R FOG
OMAHA EPPLEY   PTSUNNY   83  75  77 CALM      29.81R HX  90
BEATRICE       SUNNY     83  73  71 CALM      29.84R
NEBRASKA CITY  SUNNY     82  73  75 N5        29.82R
PLATTSMOUTH    SUNNY     81  74  80 N3        29.82R
$$

NEZ044-045-051>053-067-221500-
OMAHA AREA

CITY           SKY/WX    TMP DP  RH WIND       PRES   REMARKS
OMAHA EPPLEY   PTSUNNY   83  75  77 CALM      29.81R HX  90
BLAIR          CLOUDY    77  76  96 NW7       29.85R FOG
FREMONT        CLOUDY    77  76  97 NW6       29.87R FOG
MILLARD        CLOUDY    83  78  86 CALM      29.82R HX  92
OFFUTT AFB     SUNNY     82  75  79 CALM      29.81R
PLATTSMOUTH    SUNNY     81  74  80 N3        29.82R
WAHOO          LGT RAIN  77  76  96 NW5       29.86R VSB 1
$$




USA.gov is the U.S. government's official web portal to all federal, state and local government web resources and services.